Year,Month,Day,Hour,Minute,Value (Times are PST for temperature in C)
2011,08,17,00,00,13.10
2011,08,17,00,01,13.10
2011,08,17,00,02,13.10
2011,08,17,00,03,13.10
2011,08,17,00,04,13.10
2011,08,17,00,05,13.10
2011,08,17,00,06,13.10
2011,08,17,00,07,13.10
2011,08,17,00,08,13.10
2011,08,17,00,09,13.10
2011,08,17,00,10,13.10
2011,08,17,00,11,13.10
2011,08,17,00,12,13.10
2011,08,17,00,13,13.10
2011,08,17,00,14,13.10
2011,08,17,00,15,13.10
2011,08,17,00,16,13.10
2011,08,17,00,17,13.10
2011,08,17,00,18,13.10
2011,08,17,00,19,13.10
2011,08,17,00,20,13.10
2011,08,17,00,21,13.00
2011,08,17,00,22,13.00
2011,08,17,00,23,13.00
2011,08,17,00,24,13.00
2011,08,17,00,25,13.00
2011,08,17,00,26,12.90
2011,08,17,00,27,12.90
2011,08,17,00,28,12.90
2011,08,17,00,29,12.90
2011,08,17,00,30,12.90
2011,08,17,00,31,12.90
2011,08,17,00,32,12.90
2011,08,17,00,33,12.90
2011,08,17,00,34,12.80
2011,08,17,00,35,12.80
2011,08,17,00,36,12.80
2011,08,17,00,37,12.80
2011,08,17,00,38,12.80
2011,08,17,00,39,12.80
2011,08,17,00,40,12.80
2011,08,17,00,41,12.80
2011,08,17,00,42,12.80
2011,08,17,00,43,12.80
2011,08,17,00,44,12.80
2011,08,17,00,45,12.80
2011,08,17,00,46,12.80
2011,08,17,00,47,12.80
2011,08,17,00,48,12.80
2011,08,17,00,49,12.80
2011,08,17,00,50,12.80
2011,08,17,00,51,12.80
2011,08,17,00,52,12.80
2011,08,17,00,53,12.80
2011,08,17,00,54,12.80
2011,08,17,00,55,12.80
2011,08,17,00,56,12.80
2011,08,17,00,57,12.80
2011,08,17,00,58,12.80
2011,08,17,00,59,12.80
2011,08,17,01,00,12.80
2011,08,17,01,01,12.80
2011,08,17,01,02,12.80
2011,08,17,01,03,12.80
2011,08,17,01,04,12.80
2011,08,17,01,05,12.70
2011,08,17,01,06,12.70
2011,08,17,01,07,12.70
2011,08,17,01,08,12.70
2011,08,17,01,09,12.70
2011,08,17,01,10,12.70
2011,08,17,01,11,12.70
2011,08,17,01,12,12.60
2011,08,17,01,13,12.60
2011,08,17,01,14,12.60
2011,08,17,01,15,12.60
2011,08,17,01,16,12.60
2011,08,17,01,17,12.60
2011,08,17,01,18,12.60
2011,08,17,01,19,12.60
2011,08,17,01,20,12.60
2011,08,17,01,21,12.60
2011,08,17,01,22,12.60
2011,08,17,01,23,12.60
2011,08,17,01,24,12.60
2011,08,17,01,25,12.60
2011,08,17,01,26,12.50
2011,08,17,01,27,12.50
2011,08,17,01,28,12.50
2011,08,17,01,29,12.50
2011,08,17,01,30,12.50
2011,08,17,01,31,12.50
2011,08,17,01,32,12.50
2011,08,17,01,33,12.50
2011,08,17,01,34,12.50
2011,08,17,01,35,12.40
2011,08,17,01,36,12.40
2011,08,17,01,37,12.40
2011,08,17,01,38,12.40
2011,08,17,01,39,12.40
2011,08,17,01,40,12.40
2011,08,17,01,41,12.40
2011,08,17,01,42,12.40
2011,08,17,01,43,12.40
2011,08,17,01,44,12.40
2011,08,17,01,45,12.30
2011,08,17,01,46,12.30
2011,08,17,01,47,12.30
2011,08,17,01,48,12.30
2011,08,17,01,49,12.30
2011,08,17,01,50,12.30
2011,08,17,01,51,12.30
2011,08,17,01,52,12.30
2011,08,17,01,53,12.30
2011,08,17,01,54,12.30
2011,08,17,01,55,12.30
2011,08,17,01,56,12.20
2011,08,17,01,57,12.20
2011,08,17,01,58,12.20
2011,08,17,01,59,12.20
2011,08,17,02,00,12.20
2011,08,17,02,01,12.20
2011,08,17,02,02,12.20
2011,08,17,02,03,12.20
2011,08,17,02,04,12.20
2011,08,17,02,05,12.10
2011,08,17,02,06,12.10
2011,08,17,02,07,12.10
2011,08,17,02,08,12.10
2011,08,17,02,09,12.10
2011,08,17,02,10,12.10
2011,08,17,02,11,12.00
2011,08,17,02,12,12.00
2011,08,17,02,13,12.00
2011,08,17,02,14,11.90
2011,08,17,02,15,11.90
2011,08,17,02,16,11.90
2011,08,17,02,17,11.90
2011,08,17,02,18,11.90
2011,08,17,02,19,11.90
2011,08,17,02,20,11.90
2011,08,17,02,21,11.80
2011,08,17,02,22,11.80
2011,08,17,02,23,11.80
2011,08,17,02,24,11.80
2011,08,17,02,25,11.80
2011,08,17,02,26,11.80
2011,08,17,02,27,11.70
2011,08,17,02,28,11.70
2011,08,17,02,29,11.70
2011,08,17,02,30,11.70
2011,08,17,02,31,11.70
2011,08,17,02,32,11.60
2011,08,17,02,33,11.60
2011,08,17,02,34,11.60
2011,08,17,02,35,11.60
2011,08,17,02,36,11.60
2011,08,17,02,37,11.60
2011,08,17,02,38,11.50
2011,08,17,02,39,11.50
2011,08,17,02,40,11.50
2011,08,17,02,41,11.40
2011,08,17,02,42,11.40
2011,08,17,02,43,11.40
2011,08,17,02,44,11.40
2011,08,17,02,45,11.40
2011,08,17,02,46,11.30
2011,08,17,02,47,11.30
2011,08,17,02,48,11.30
2011,08,17,02,49,11.30
2011,08,17,02,50,11.30
2011,08,17,02,51,11.30
2011,08,17,02,52,11.30
2011,08,17,02,53,11.20
2011,08,17,02,54,11.20
2011,08,17,02,55,11.20
2011,08,17,02,56,11.20
2011,08,17,02,57,11.20
2011,08,17,02,58,11.20
2011,08,17,02,59,11.20
2011,08,17,03,00,11.10
2011,08,17,03,01,11.10
2011,08,17,03,02,11.10
2011,08,17,03,03,11.10
2011,08,17,03,04,11.10
2011,08,17,03,05,11.00
2011,08,17,03,06,11.00
2011,08,17,03,07,11.00
2011,08,17,03,08,11.00
2011,08,17,03,09,10.90
2011,08,17,03,10,10.90
2011,08,17,03,11,10.90
2011,08,17,03,12,10.90
2011,08,17,03,13,10.90
2011,08,17,03,14,10.90
2011,08,17,03,15,10.90
2011,08,17,03,16,10.90
2011,08,17,03,17,10.90
2011,08,17,03,18,10.80
2011,08,17,03,19,10.80
2011,08,17,03,20,10.80
2011,08,17,03,21,10.80
2011,08,17,03,22,10.80
2011,08,17,03,23,10.80
2011,08,17,03,24,10.80
2011,08,17,03,25,10.80
2011,08,17,03,26,10.80
2011,08,17,03,27,10.70
2011,08,17,03,28,10.70
2011,08,17,03,29,10.70
2011,08,17,03,30,10.70
2011,08,17,03,31,10.70
2011,08,17,03,32,10.70
2011,08,17,03,33,10.60
2011,08,17,03,34,10.60
2011,08,17,03,35,10.60
2011,08,17,03,36,10.60
2011,08,17,03,37,10.60
2011,08,17,03,38,10.60
2011,08,17,03,39,10.60
2011,08,17,03,40,10.60
2011,08,17,03,41,10.60
2011,08,17,03,42,10.60
2011,08,17,03,43,10.60
2011,08,17,03,44,10.50
2011,08,17,03,45,10.50
2011,08,17,03,46,10.50
2011,08,17,03,47,10.50
2011,08,17,03,48,10.40
2011,08,17,03,49,10.40
2011,08,17,03,50,10.40
2011,08,17,03,51,10.40
2011,08,17,03,52,10.40
2011,08,17,03,53,10.40
2011,08,17,03,54,10.40
2011,08,17,03,55,10.30
2011,08,17,03,56,10.30
2011,08,17,03,57,10.30
2011,08,17,03,58,10.30
2011,08,17,03,59,10.30
2011,08,17,04,00,10.30
2011,08,17,04,01,10.30
2011,08,17,04,02,10.30
2011,08,17,04,03,10.30
2011,08,17,04,04,10.30
2011,08,17,04,05,10.30
2011,08,17,04,06,10.20
2011,08,17,04,07,10.20
2011,08,17,04,08,10.20
2011,08,17,04,09,10.20
2011,08,17,04,10,10.20
2011,08,17,04,11,10.20
2011,08,17,04,12,10.20
2011,08,17,04,13,10.20
2011,08,17,04,14,10.20
2011,08,17,04,15,10.20
2011,08,17,04,16,10.10
2011,08,17,04,17,10.10
2011,08,17,04,18,10.10
2011,08,17,04,19,10.10
2011,08,17,04,20,10.10
2011,08,17,04,21,10.10
2011,08,17,04,22,10.10
2011,08,17,04,23,10.10
2011,08,17,04,24,10.10
2011,08,17,04,25,10.10
2011,08,17,04,26,10.10
2011,08,17,04,27,10.10
2011,08,17,04,28,10.10
2011,08,17,04,29,10.00
2011,08,17,04,30,10.00
2011,08,17,04,31,10.00
2011,08,17,04,32,10.00
2011,08,17,04,33,10.00
2011,08,17,04,34,9.90
2011,08,17,04,35,9.90
2011,08,17,04,36,9.90
2011,08,17,04,37,9.90
2011,08,17,04,38,9.90
2011,08,17,04,39,9.90
2011,08,17,04,40,9.90
2011,08,17,04,41,9.90
2011,08,17,04,42,9.80
2011,08,17,04,43,9.80
2011,08,17,04,44,9.80
2011,08,17,04,45,9.80
2011,08,17,04,46,9.80
2011,08,17,04,47,9.80
2011,08,17,04,48,9.80
2011,08,17,04,49,9.80
2011,08,17,04,50,9.80
2011,08,17,04,51,9.80
2011,08,17,04,52,9.80
2011,08,17,04,53,9.70
2011,08,17,04,54,9.70
2011,08,17,04,55,9.70
2011,08,17,04,56,9.70
2011,08,17,04,57,9.70
2011,08,17,04,58,9.70
2011,08,17,04,59,9.70
2011,08,17,05,00,9.70
2011,08,17,05,01,9.70
2011,08,17,05,02,9.70
2011,08,17,05,03,9.70
2011,08,17,05,04,9.70
2011,08,17,05,05,9.60
2011,08,17,05,06,9.60
2011,08,17,05,07,9.60
2011,08,17,05,08,9.60
2011,08,17,05,09,9.60
2011,08,17,05,10,9.60
2011,08,17,05,11,9.60
2011,08,17,05,12,9.60
2011,08,17,05,13,9.60
2011,08,17,05,14,9.60
2011,08,17,05,15,9.60
2011,08,17,05,16,9.50
2011,08,17,05,17,9.50
2011,08,17,05,18,9.50
2011,08,17,05,19,9.50
2011,08,17,05,20,9.50
2011,08,17,05,21,9.50
2011,08,17,05,22,9.50
2011,08,17,05,23,9.40
2011,08,17,05,24,9.40
2011,08,17,05,25,9.40
2011,08,17,05,26,9.40
2011,08,17,05,27,9.40
2011,08,17,05,28,9.40
2011,08,17,05,29,9.40
2011,08,17,05,30,9.40
2011,08,17,05,31,9.40
2011,08,17,05,32,9.40
2011,08,17,05,33,9.40
2011,08,17,05,34,9.40
2011,08,17,05,35,9.40
2011,08,17,05,36,9.30
2011,08,17,05,37,9.30
2011,08,17,05,38,9.30
2011,08,17,05,39,9.30
2011,08,17,05,40,9.30
2011,08,17,05,41,9.30
2011,08,17,05,42,9.30
2011,08,17,05,43,9.30
2011,08,17,05,44,9.30
2011,08,17,05,45,9.20
2011,08,17,05,46,9.20
2011,08,17,05,47,9.20
2011,08,17,05,48,9.20
2011,08,17,05,49,9.20
2011,08,17,05,50,9.20
2011,08,17,05,51,9.20
2011,08,17,05,52,9.20
2011,08,17,05,53,9.20
2011,08,17,05,54,9.20
2011,08,17,05,55,9.20
2011,08,17,05,56,9.20
2011,08,17,05,57,9.20
2011,08,17,05,58,9.20
2011,08,17,05,59,9.20
2011,08,17,06,00,9.20
2011,08,17,06,01,9.20
2011,08,17,06,02,9.20
2011,08,17,06,03,9.20
2011,08,17,06,04,9.20
2011,08,17,06,05,9.20
2011,08,17,06,06,9.20
2011,08,17,06,07,9.20
2011,08,17,06,08,9.20
2011,08,17,06,09,9.10
2011,08,17,06,10,9.10
2011,08,17,06,11,9.10
2011,08,17,06,12,9.10
2011,08,17,06,13,9.10
2011,08,17,06,14,9.10
2011,08,17,06,15,9.10
2011,08,17,06,16,9.10
2011,08,17,06,17,9.10
2011,08,17,06,18,9.10
2011,08,17,06,19,9.10
2011,08,17,06,20,9.10
2011,08,17,06,21,9.10
2011,08,17,06,22,9.10
2011,08,17,06,23,9.10
2011,08,17,06,24,9.20
2011,08,17,06,25,9.20
2011,08,17,06,26,9.20
2011,08,17,06,27,9.20
2011,08,17,06,28,9.20
2011,08,17,06,29,9.20
2011,08,17,06,30,9.20
2011,08,17,06,31,9.20
2011,08,17,06,32,9.20
2011,08,17,06,33,9.20
2011,08,17,06,34,9.30
2011,08,17,06,35,9.30
2011,08,17,06,36,9.30
2011,08,17,06,37,9.30
2011,08,17,06,38,9.30
2011,08,17,06,39,9.30
2011,08,17,06,40,9.30
2011,08,17,06,41,9.30
2011,08,17,06,42,9.30
2011,08,17,06,43,9.30
2011,08,17,06,44,9.30
2011,08,17,06,45,9.30
2011,08,17,06,46,9.30
2011,08,17,06,47,9.30
2011,08,17,06,48,9.30
2011,08,17,06,49,9.30
2011,08,17,06,50,9.30
2011,08,17,06,51,9.40
2011,08,17,06,52,9.40
2011,08,17,06,53,9.40
2011,08,17,06,54,9.50
2011,08,17,06,55,9.50
2011,08,17,06,56,9.50
2011,08,17,06,57,9.60
2011,08,17,06,58,9.60
2011,08,17,06,59,9.60
2011,08,17,07,00,9.60
2011,08,17,07,01,9.60
2011,08,17,07,02,9.70
2011,08,17,07,03,9.70
2011,08,17,07,04,9.80
2011,08,17,07,05,9.80
2011,08,17,07,06,9.90
2011,08,17,07,07,9.90
2011,08,17,07,08,10.00
2011,08,17,07,09,10.00
2011,08,17,07,10,10.10
2011,08,17,07,11,10.10
2011,08,17,07,12,10.10
2011,08,17,07,13,10.10
2011,08,17,07,14,10.10
2011,08,17,07,15,10.10
2011,08,17,07,16,10.20
2011,08,17,07,17,10.20
2011,08,17,07,18,10.20
2011,08,17,07,19,10.30
2011,08,17,07,20,10.30
2011,08,17,07,21,10.30
2011,08,17,07,22,10.40
2011,08,17,07,23,10.40
2011,08,17,07,24,10.40
2011,08,17,07,25,10.40
2011,08,17,07,26,10.40
2011,08,17,07,27,10.40
2011,08,17,07,28,10.50
2011,08,17,07,29,10.50
2011,08,17,07,30,10.50
2011,08,17,07,31,10.50
2011,08,17,07,32,10.50
2011,08,17,07,33,10.50
2011,08,17,07,34,10.60
2011,08,17,07,35,10.60
2011,08,17,07,36,10.60
2011,08,17,07,37,10.60
2011,08,17,07,38,10.70
2011,08,17,07,39,10.70
2011,08,17,07,40,10.70
2011,08,17,07,41,10.80
2011,08,17,07,42,10.80
2011,08,17,07,43,10.90
2011,08,17,07,44,10.90
2011,08,17,07,45,11.00
2011,08,17,07,46,11.10
2011,08,17,07,47,11.20
2011,08,17,07,48,11.30
2011,08,17,07,49,11.40
2011,08,17,07,50,11.50
2011,08,17,07,51,11.50
2011,08,17,07,52,11.60
2011,08,17,07,53,11.70
2011,08,17,07,54,11.70
2011,08,17,07,55,11.70
2011,08,17,07,56,11.70
2011,08,17,07,57,11.70
2011,08,17,07,58,11.70
2011,08,17,07,59,11.80
2011,08,17,08,00,11.80
2011,08,17,08,01,11.90
2011,08,17,08,02,11.90
2011,08,17,08,03,12.00
2011,08,17,08,04,12.00
2011,08,17,08,05,12.10
2011,08,17,08,06,12.10
2011,08,17,08,07,12.10
2011,08,17,08,08,12.10
2011,08,17,08,09,12.10
2011,08,17,08,10,12.10
2011,08,17,08,11,12.10
2011,08,17,08,12,12.20
2011,08,17,08,13,12.20
2011,08,17,08,14,12.20
2011,08,17,08,15,12.30
2011,08,17,08,16,12.30
2011,08,17,08,17,12.30
2011,08,17,08,18,12.40
2011,08,17,08,19,12.40
2011,08,17,08,20,12.40
2011,08,17,08,21,12.50
2011,08,17,08,22,12.60
2011,08,17,08,23,12.60
2011,08,17,08,24,12.70
2011,08,17,08,25,12.80
2011,08,17,08,26,12.80
2011,08,17,08,27,12.90
2011,08,17,08,28,13.00
2011,08,17,08,29,13.00
2011,08,17,08,30,13.10
2011,08,17,08,31,13.10
2011,08,17,08,32,13.10
2011,08,17,08,33,13.20
2011,08,17,08,34,13.20
2011,08,17,08,35,13.30
2011,08,17,08,36,13.30
2011,08,17,08,37,13.30
2011,08,17,08,38,13.30
2011,08,17,08,39,13.30
2011,08,17,08,40,13.40
2011,08,17,08,41,13.40
2011,08,17,08,42,13.50
2011,08,17,08,43,13.60
2011,08,17,08,44,13.70
2011,08,17,08,45,13.80
2011,08,17,08,46,13.80
2011,08,17,08,47,13.90
2011,08,17,08,48,14.00
2011,08,17,08,49,14.10
2011,08,17,08,50,14.20
2011,08,17,08,51,14.30
2011,08,17,08,52,14.40
2011,08,17,08,53,14.40
2011,08,17,08,54,14.50
2011,08,17,08,55,14.60
2011,08,17,08,56,14.70
2011,08,17,08,57,14.70
2011,08,17,08,58,14.80
2011,08,17,08,59,14.90
2011,08,17,09,00,15.00
2011,08,17,09,01,15.00
2011,08,17,09,02,15.00
2011,08,17,09,03,15.00
2011,08,17,09,04,15.00
2011,08,17,09,05,15.00
2011,08,17,09,06,15.00
2011,08,17,09,07,15.00
2011,08,17,09,08,15.20
2011,08,17,09,09,15.30
2011,08,17,09,10,15.40
2011,08,17,09,11,15.50
2011,08,17,09,12,15.60
2011,08,17,09,13,15.70
2011,08,17,09,14,15.80
2011,08,17,09,15,15.90
2011,08,17,09,16,15.90
2011,08,17,09,17,16.00
2011,08,17,09,18,16.10
2011,08,17,09,19,16.10
2011,08,17,09,20,16.10
2011,08,17,09,21,16.10
2011,08,17,09,22,16.10
2011,08,17,09,23,16.10
2011,08,17,09,24,16.10
2011,08,17,09,25,16.10
2011,08,17,09,26,16.10
2011,08,17,09,27,16.10
2011,08,17,09,28,16.20
2011,08,17,09,29,16.30
2011,08,17,09,30,16.40
2011,08,17,09,31,16.50
2011,08,17,09,32,16.60
2011,08,17,09,33,16.70
2011,08,17,09,34,16.80
2011,08,17,09,35,16.90
2011,08,17,09,36,17.00
2011,08,17,09,37,17.00
2011,08,17,09,38,17.10
2011,08,17,09,39,17.10
2011,08,17,09,40,17.20
2011,08,17,09,41,17.20
2011,08,17,09,42,17.10
2011,08,17,09,43,17.10
2011,08,17,09,44,17.00
2011,08,17,09,45,16.90
2011,08,17,09,46,16.90
2011,08,17,09,47,17.00
2011,08,17,09,48,17.10
2011,08,17,09,49,17.20
2011,08,17,09,50,17.30
2011,08,17,09,51,17.40
2011,08,17,09,52,17.50
2011,08,17,09,53,17.60
2011,08,17,09,54,17.60
2011,08,17,09,55,17.70
2011,08,17,09,56,17.80
2011,08,17,09,57,17.90
2011,08,17,09,58,18.00
2011,08,17,09,59,18.00
2011,08,17,10,00,18.00
2011,08,17,10,01,18.10
2011,08,17,10,02,18.10
2011,08,17,10,03,18.00
2011,08,17,10,04,18.00
2011,08,17,10,05,17.90
2011,08,17,10,06,17.90
2011,08,17,10,07,17.90
2011,08,17,10,08,17.80
2011,08,17,10,09,17.80
2011,08,17,10,10,17.80
2011,08,17,10,11,17.90
2011,08,17,10,12,18.00
2011,08,17,10,13,18.00
2011,08,17,10,14,17.90
2011,08,17,10,15,17.90
2011,08,17,10,16,18.00
2011,08,17,10,17,18.00
2011,08,17,10,18,18.10
2011,08,17,10,19,18.20
2011,08,17,10,20,18.30
2011,08,17,10,21,18.40
2011,08,17,10,22,18.50
2011,08,17,10,23,18.60
2011,08,17,10,24,18.60
2011,08,17,10,25,18.70
2011,08,17,10,26,18.70
2011,08,17,10,27,18.70
2011,08,17,10,28,18.60
2011,08,17,10,29,18.40
2011,08,17,10,30,18.40
2011,08,17,10,31,18.40
2011,08,17,10,32,18.30
2011,08,17,10,33,18.30
2011,08,17,10,34,18.40
2011,08,17,10,35,18.40
2011,08,17,10,36,18.50
2011,08,17,10,37,18.60
2011,08,17,10,38,18.60
2011,08,17,10,39,18.70
2011,08,17,10,40,18.70
2011,08,17,10,41,18.80
2011,08,17,10,42,18.80
2011,08,17,10,43,18.80
2011,08,17,10,44,18.90
2011,08,17,10,45,19.00
2011,08,17,10,46,19.00
2011,08,17,10,47,19.00
2011,08,17,10,48,19.10
2011,08,17,10,49,19.10
2011,08,17,10,50,19.10
2011,08,17,10,51,19.10
2011,08,17,10,52,19.20
2011,08,17,10,53,19.20
2011,08,17,10,54,19.20
2011,08,17,10,55,19.20
2011,08,17,10,56,19.20
2011,08,17,10,57,19.30
2011,08,17,10,58,19.30
2011,08,17,10,59,19.30
2011,08,17,11,00,19.30
2011,08,17,11,01,19.30
2011,08,17,11,02,19.30
2011,08,17,11,03,19.20
2011,08,17,11,04,19.20
2011,08,17,11,05,19.10
2011,08,17,11,06,19.10
2011,08,17,11,07,19.10
2011,08,17,11,08,19.10
2011,08,17,11,09,19.20
2011,08,17,11,10,19.20
2011,08,17,11,11,19.30
2011,08,17,11,12,19.30
2011,08,17,11,13,19.40
2011,08,17,11,14,19.50
2011,08,17,11,15,19.50
2011,08,17,11,16,19.50
2011,08,17,11,17,19.40
2011,08,17,11,18,19.50
2011,08,17,11,19,19.50
2011,08,17,11,20,19.60
2011,08,17,11,21,19.60
2011,08,17,11,22,19.60
2011,08,17,11,23,19.70
2011,08,17,11,24,19.70
2011,08,17,11,25,19.70
2011,08,17,11,26,19.70
2011,08,17,11,27,19.60
2011,08,17,11,28,19.60
2011,08,17,11,29,19.50
2011,08,17,11,30,19.50
2011,08,17,11,31,19.40
2011,08,17,11,32,19.40
2011,08,17,11,33,19.40
2011,08,17,11,34,19.40
2011,08,17,11,35,19.30
2011,08,17,11,36,19.20
2011,08,17,11,37,19.10
2011,08,17,11,38,19.00
2011,08,17,11,39,19.00
2011,08,17,11,40,18.90
2011,08,17,11,41,18.90
2011,08,17,11,42,18.90
2011,08,17,11,43,19.00
2011,08,17,11,44,18.90
2011,08,17,11,45,18.90
2011,08,17,11,46,19.00
2011,08,17,11,47,19.00
2011,08,17,11,48,19.10
2011,08,17,11,49,19.20
2011,08,17,11,50,19.30
2011,08,17,11,51,19.40
2011,08,17,11,52,19.50
2011,08,17,11,53,19.50
2011,08,17,11,54,19.50
2011,08,17,11,55,19.50
2011,08,17,11,56,19.50
2011,08,17,11,57,19.40
2011,08,17,11,58,19.40
2011,08,17,11,59,19.30
2011,08,17,12,00,19.30
2011,08,17,12,01,19.30
2011,08,17,12,02,19.30
2011,08,17,12,03,19.40
2011,08,17,12,04,19.30
2011,08,17,12,05,19.30
2011,08,17,12,06,19.30
2011,08,17,12,07,19.30
2011,08,17,12,08,19.30
2011,08,17,12,09,19.30
2011,08,17,12,10,19.30
2011,08,17,12,11,19.40
2011,08,17,12,12,19.40
2011,08,17,12,13,19.40
2011,08,17,12,14,19.40
2011,08,17,12,15,19.50
2011,08,17,12,16,19.60
2011,08,17,12,17,19.50
2011,08,17,12,18,19.50
2011,08,17,12,19,19.60
2011,08,17,12,20,19.70
2011,08,17,12,21,19.80
2011,08,17,12,22,19.90
2011,08,17,12,23,20.00
2011,08,17,12,24,20.00
2011,08,17,12,25,20.10
2011,08,17,12,26,20.20
2011,08,17,12,27,20.30
2011,08,17,12,28,20.40
2011,08,17,12,29,20.60
2011,08,17,12,30,20.70
2011,08,17,12,31,20.80
2011,08,17,12,32,20.80
2011,08,17,12,33,20.90
2011,08,17,12,34,20.90
2011,08,17,12,35,21.00
2011,08,17,12,36,21.10
2011,08,17,12,37,21.20
2011,08,17,12,38,21.20
2011,08,17,12,39,21.30
2011,08,17,12,40,21.30
2011,08,17,12,41,21.30
2011,08,17,12,42,21.30
2011,08,17,12,43,21.30
2011,08,17,12,44,21.20
2011,08,17,12,45,21.10
2011,08,17,12,46,21.10
2011,08,17,12,47,21.10
2011,08,17,12,48,21.10
2011,08,17,12,49,21.10
2011,08,17,12,50,21.10
2011,08,17,12,51,21.20
2011,08,17,12,52,21.10
2011,08,17,12,53,21.00
2011,08,17,12,54,20.90
2011,08,17,12,55,20.80
2011,08,17,12,56,20.70
2011,08,17,12,57,20.70
2011,08,17,12,58,20.70
2011,08,17,12,59,20.60
2011,08,17,13,00,20.70
2011,08,17,13,01,20.90
2011,08,17,13,02,21.20
2011,08,17,13,03,21.40
2011,08,17,13,04,21.60
2011,08,17,13,05,21.70
2011,08,17,13,06,21.80
2011,08,17,13,07,21.80
2011,08,17,13,08,22.00
2011,08,17,13,09,22.20
2011,08,17,13,10,22.40
2011,08,17,13,11,22.50
2011,08,17,13,12,22.50
2011,08,17,13,13,22.60
2011,08,17,13,14,22.70
2011,08,17,13,15,22.70
2011,08,17,13,16,22.70
2011,08,17,13,17,22.70
2011,08,17,13,18,22.70
2011,08,17,13,19,22.70
2011,08,17,13,20,22.60
2011,08,17,13,21,22.60
2011,08,17,13,22,22.60
2011,08,17,13,23,22.60
2011,08,17,13,24,22.60
2011,08,17,13,25,22.60
2011,08,17,13,26,22.60
2011,08,17,13,27,22.50
2011,08,17,13,28,22.40
2011,08,17,13,29,22.40
2011,08,17,13,30,22.30
2011,08,17,13,31,22.30
2011,08,17,13,32,22.30
2011,08,17,13,33,22.30
2011,08,17,13,34,22.30
2011,08,17,13,35,22.30
2011,08,17,13,36,22.40
2011,08,17,13,37,22.30
2011,08,17,13,38,22.30
2011,08,17,13,39,22.30
2011,08,17,13,40,22.40
2011,08,17,13,41,22.50
2011,08,17,13,42,22.60
2011,08,17,13,43,22.60
2011,08,17,13,44,22.70
2011,08,17,13,45,22.70
2011,08,17,13,46,22.70
2011,08,17,13,47,22.60
2011,08,17,13,48,22.60
2011,08,17,13,49,22.50
2011,08,17,13,50,22.40
2011,08,17,13,51,22.40
2011,08,17,13,52,22.40
2011,08,17,13,53,22.40
2011,08,17,13,54,22.40
2011,08,17,13,55,22.50
2011,08,17,13,56,22.50
2011,08,17,13,57,22.60
2011,08,17,13,58,22.60
2011,08,17,13,59,22.70
2011,08,17,14,00,22.70
2011,08,17,14,01,22.70
2011,08,17,14,02,22.70
2011,08,17,14,03,22.70
2011,08,17,14,04,22.80
2011,08,17,14,05,22.90
2011,08,17,14,06,23.00
2011,08,17,14,07,23.10
2011,08,17,14,08,23.20
2011,08,17,14,09,23.20
2011,08,17,14,10,23.30
2011,08,17,14,11,23.30
2011,08,17,14,12,23.30
2011,08,17,14,13,23.30
2011,08,17,14,14,23.30
2011,08,17,14,15,23.30
2011,08,17,14,16,23.30
2011,08,17,14,17,23.30
2011,08,17,14,18,23.30
2011,08,17,14,19,23.30
2011,08,17,14,20,23.40
2011,08,17,14,21,23.40
2011,08,17,14,22,23.40
2011,08,17,14,23,23.40
2011,08,17,14,24,23.40
2011,08,17,14,25,23.40
2011,08,17,14,26,23.40
2011,08,17,14,27,23.50
2011,08,17,14,28,23.50
2011,08,17,14,29,23.50
2011,08,17,14,30,23.50
2011,08,17,14,31,23.60
2011,08,17,14,32,23.50
2011,08,17,14,33,23.30
2011,08,17,14,34,23.10
2011,08,17,14,35,23.10
2011,08,17,14,36,23.10
2011,08,17,14,37,23.10
2011,08,17,14,38,23.10
2011,08,17,14,39,23.10
2011,08,17,14,40,23.00
2011,08,17,14,41,22.90
2011,08,17,14,42,22.80
2011,08,17,14,43,22.80
2011,08,17,14,44,22.80
2011,08,17,14,45,22.80
2011,08,17,14,46,22.80
2011,08,17,14,47,22.90
2011,08,17,14,48,22.90
2011,08,17,14,49,22.90
2011,08,17,14,50,22.90
2011,08,17,14,51,22.90
2011,08,17,14,52,23.00
2011,08,17,14,53,23.00
2011,08,17,14,54,23.00
2011,08,17,14,55,23.00
2011,08,17,14,56,23.00
2011,08,17,14,57,22.90
2011,08,17,14,58,23.00
2011,08,17,14,59,23.00
2011,08,17,15,00,23.10
2011,08,17,15,01,23.10
2011,08,17,15,02,23.10
2011,08,17,15,03,23.10
2011,08,17,15,04,23.10
2011,08,17,15,05,23.20
2011,08,17,15,06,23.20
2011,08,17,15,07,23.20
2011,08,17,15,08,23.20
2011,08,17,15,09,23.10
2011,08,17,15,10,23.20
2011,08,17,15,11,23.30
2011,08,17,15,12,23.30
2011,08,17,15,13,23.30
2011,08,17,15,14,23.30
2011,08,17,15,15,23.20
2011,08,17,15,16,23.20
2011,08,17,15,17,23.20
2011,08,17,15,18,23.20
2011,08,17,15,19,23.30
2011,08,17,15,20,23.30
2011,08,17,15,21,23.30
2011,08,17,15,22,23.20
2011,08,17,15,23,23.10
2011,08,17,15,24,23.10
2011,08,17,15,25,23.00
2011,08,17,15,26,23.10
2011,08,17,15,27,23.10
2011,08,17,15,28,23.00
2011,08,17,15,29,22.90
2011,08,17,15,30,22.90
2011,08,17,15,31,22.80
2011,08,17,15,32,22.70
2011,08,17,15,33,22.50
2011,08,17,15,34,22.40
2011,08,17,15,35,22.30
2011,08,17,15,36,22.30
2011,08,17,15,37,22.30
2011,08,17,15,38,22.30
2011,08,17,15,39,22.30
2011,08,17,15,40,22.30
2011,08,17,15,41,22.30
2011,08,17,15,42,22.30
2011,08,17,15,43,22.30
2011,08,17,15,44,22.30
2011,08,17,15,45,22.20
2011,08,17,15,46,22.20
2011,08,17,15,47,22.20
2011,08,17,15,48,22.20
2011,08,17,15,49,22.20
2011,08,17,15,50,22.10
2011,08,17,15,51,22.00
2011,08,17,15,52,21.90
2011,08,17,15,53,21.90
2011,08,17,15,54,21.80
2011,08,17,15,55,21.80
2011,08,17,15,56,21.80
2011,08,17,15,57,21.80
2011,08,17,15,58,21.80
2011,08,17,15,59,21.70
2011,08,17,16,00,21.60
2011,08,17,16,01,21.50
2011,08,17,16,02,21.40
2011,08,17,16,03,21.30
2011,08,17,16,04,21.20
2011,08,17,16,05,21.20
2011,08,17,16,06,21.20
2011,08,17,16,07,21.20
2011,08,17,16,08,21.20
2011,08,17,16,09,21.10
2011,08,17,16,10,21.10
2011,08,17,16,11,21.10
2011,08,17,16,12,21.00
2011,08,17,16,13,21.00
2011,08,17,16,14,21.00
2011,08,17,16,15,21.10
2011,08,17,16,16,21.20
2011,08,17,16,17,21.20
2011,08,17,16,18,21.30
2011,08,17,16,19,21.40
2011,08,17,16,20,21.40
2011,08,17,16,21,21.40
2011,08,17,16,22,21.40
2011,08,17,16,23,21.40
2011,08,17,16,24,21.40
2011,08,17,16,25,21.40
2011,08,17,16,26,21.40
2011,08,17,16,27,21.40
2011,08,17,16,28,21.30
2011,08,17,16,29,21.20
2011,08,17,16,30,21.10
2011,08,17,16,31,21.00
2011,08,17,16,32,20.80
2011,08,17,16,33,20.70
2011,08,17,16,34,20.60
2011,08,17,16,35,20.60
2011,08,17,16,36,20.60
2011,08,17,16,37,20.60
2011,08,17,16,38,20.60
2011,08,17,16,39,20.60
2011,08,17,16,40,20.60
2011,08,17,16,41,20.70
2011,08,17,16,42,20.80
2011,08,17,16,43,20.90
2011,08,17,16,44,21.00
2011,08,17,16,45,21.20
2011,08,17,16,46,21.30
2011,08,17,16,47,21.40
2011,08,17,16,48,21.50
2011,08,17,16,49,21.60
2011,08,17,16,50,21.70
2011,08,17,16,51,21.80
2011,08,17,16,52,21.80
2011,08,17,16,53,21.90
2011,08,17,16,54,22.00
2011,08,17,16,55,22.10
2011,08,17,16,56,22.20
2011,08,17,16,57,22.20
2011,08,17,16,58,22.30
2011,08,17,16,59,22.40
2011,08,17,17,00,22.40
2011,08,17,17,01,22.40
2011,08,17,17,02,22.40
2011,08,17,17,03,22.40
2011,08,17,17,04,22.40
2011,08,17,17,05,22.50
2011,08,17,17,06,22.50
2011,08,17,17,07,22.40
2011,08,17,17,08,22.40
2011,08,17,17,09,22.50
2011,08,17,17,10,22.50
2011,08,17,17,11,22.50
2011,08,17,17,12,22.60
2011,08,17,17,13,22.60
2011,08,17,17,14,22.70
2011,08,17,17,15,22.70
2011,08,17,17,16,22.80
2011,08,17,17,17,22.80
2011,08,17,17,18,22.80
2011,08,17,17,19,22.90
2011,08,17,17,20,23.00
2011,08,17,17,21,23.00
2011,08,17,17,22,23.00
2011,08,17,17,23,22.90
2011,08,17,17,24,22.80
2011,08,17,17,25,22.80
2011,08,17,17,26,22.70